Weather History for Penn Yan, NY

Change the Weather History Date:

Thursday, May 16, 2013

  Actual Average (KITH) Record (KITH)
Temperature  
Mean Temperature 66 °F -  
Max Temperature 78 °F 68 °F 89 °F (1998)
Min Temperature 54 °F 44 °F 30 °F (1936)
Cooling Degree Days 1    
Growing Degree Days 16 (Base 50)    
Moisture  
Dew Point 41 °F    
Average Humidity 45    
Maximum Humidity 77    
Minimum Humidity 21    
Precipitation  
Precipitation 0.00 in - - ()
Sea Level Pressure  
Sea Level Pressure 29.81 in    
Wind  
Wind Speed 7 mph (West)    
Max Wind Speed 23 mph    
Max Gust Speed 37 mph    
Visibility 10 miles    
Events      
Averages and records for this station are not official NWS values.
T = Trace of Precipitation, MM = Missing Value Source: NWS Daily Summary

Daily Weather History Graph

Daily Weather History Graph

Search for Another Location

Airport:

Trip Planner

Search our weather history database for the weather conditions in past years. The results will help you decide how hot, cold, wet, or windy it might be!

Date:

Astronomy

May. 16, 2013 Rise Set
Actual Time 5:44 AM EDT 8:25 PM EDT
Civil Twilight 5:12 AM EDT 8:57 PM EDT
Nautical Twilight 4:31 AM EDT 9:38 PM EDT
Astronomical Twilight 3:45 AM EDT 10:25 PM EDT
Moon 11:18 AM EDT (5/16) 12:42 AM EDT (5/16)
Length of Visible Light 15h 45m
Length of Day
14h 40m
Waxing Crescent, 35% of the Moon is Illuminated
May 16
Waxing Crescent
May 18
First Quarter
May 25
Full
May 31
Last Quarter
Jun 8
New

Hourly Weather History & Observations

Time (EDT) Temp. Dew Point Humidity Pressure Visibility Wind Dir Wind Speed Gust Speed Precip Events Conditions
12:53 AM 60.1 °F 45.0 °F 57% 29.75 in 10.0 mi SSW 3.5 mph - N/A   Clear
1:53 AM 57.9 °F 46.0 °F 65% 29.74 in 10.0 mi SSW 4.6 mph - N/A   Clear
2:53 AM 55.9 °F 46.0 °F 69% 29.75 in 10.0 mi WSW 3.5 mph - N/A   Clear
3:53 AM 55.0 °F 48.0 °F 77% 29.75 in 10.0 mi Calm Calm - N/A   Scattered Clouds
4:53 AM 55.9 °F 46.0 °F 69% 29.76 in 10.0 mi Calm Calm - N/A   Overcast
5:53 AM 57.0 °F 46.0 °F 67% 29.77 in 10.0 mi SW 3.5 mph - N/A   Overcast
6:53 AM 57.9 °F 45.0 °F 62% 29.79 in 10.0 mi SSW 6.9 mph - N/A   Overcast
7:53 AM 60.1 °F 46.0 °F 60% 29.79 in 10.0 mi SSW 6.9 mph - N/A   Overcast
8:53 AM 64.0 °F 46.0 °F 52% 29.80 in 10.0 mi SSW 6.9 mph - N/A   Partly Cloudy
9:53 AM 70.0 °F 42.1 °F 36% 29.79 in 10.0 mi SW 6.9 mph - N/A   Clear
10:53 AM 73.9 °F 37.0 °F 26% 29.78 in 10.0 mi West 9.2 mph 24.2 mph N/A   Clear
11:53 AM 73.9 °F 36.0 °F 25% 29.78 in 10.0 mi WNW 16.1 mph 24.2 mph N/A   Clear
12:53 PM 75.9 °F 37.0 °F 24% 29.78 in 10.0 mi West 20.7 mph 33.4 mph N/A   Partly Cloudy
1:53 PM 77.0 °F 34.0 °F 21% 29.77 in 10.0 mi West 16.1 mph 28.8 mph N/A   Partly Cloudy
2:53 PM 77.0 °F 35.1 °F 22% 29.78 in 10.0 mi West 23.0 mph 36.8 mph N/A   Clear
3:53 PM 75.9 °F 37.0 °F 24% 29.78 in 10.0 mi WNW 16.1 mph 29.9 mph N/A   Clear
4:53 PM 75.9 °F 36.0 °F 23% 29.79 in 10.0 mi West 16.1 mph 25.3 mph 0.00 in   Partly Cloudy
6:53 PM 73.0 °F 37.9 °F 28% 29.82 in 10.0 mi West 10.4 mph 18.4 mph N/A   Scattered Clouds
7:53 PM 68.0 °F 35.1 °F 30% 29.87 in 10.0 mi NNW 11.5 mph - N/A   Clear
8:53 PM 61.0 °F 37.0 °F 41% 29.92 in 10.0 mi NW 11.5 mph 17.3 mph N/A   Clear
9:53 PM 57.9 °F 37.9 °F 47% 29.95 in 10.0 mi NW 10.4 mph 16.1 mph N/A   Clear
10:53 PM 55.9 °F 37.9 °F 51% 29.97 in 10.0 mi WNW 6.9 mph - N/A   Clear
11:53 PM 54.0 °F 39.0 °F 57% 29.99 in 10.0 mi WNW 8.1 mph - N/A   Clear